ASTRA 1L

Last updated on Sun Oct 26 2025 00:02:55 GMT+0000 (Coordinated Universal Time)

1 31306U 07016A 25298.32544678 .00000134 00000+0 00000+0 0 9998 2 31306 0.7103 82.6550 0003417 136.4217 311.4618 1.00272444 42634
UTC large
Height (km)
Speed (km/s)
/
Latitude / Longitude
Inclination (degrees)
Orbital Period (minutes)
Azimuth
Elevation
Range (km)
Doppler Factor

Next 0 passes for location: London (51.5072 / 0.1276)

Sorry there are no passes over London.